Time,TemperatureF,DewpointF,PressureIn,WindDirection,WindDirectionDegrees,WindSpeedMPH,WindSpeedGustMPH,Humidity,HourlyPrecipIn,Conditions,Clouds,dailyrainin,SolarRadiationWatts/m^2,SoftwareType,DateUTC
2013-02-24 00:01:00,27.0,5.0,-100.00,SSW,199,7.0,18.0,38,0.00,,,0.06,0.000000,,2013-02-24 08:01:00,
2013-02-24 00:11:00,27.0,5.0,-100.00,SSW,199,7.0,18.0,38,0.00,,,0.06,0.000000,,2013-02-24 08:11:00,
2013-02-24 00:21:00,27.0,5.0,-100.00,SSW,199,7.0,18.0,38,0.00,,,0.06,0.000000,,2013-02-24 08:21:00,
2013-02-24 00:42:00,26.0,6.0,-100.00,SW,227,7.0,17.0,41,0.00,,,-99.99,0.000000,,2013-02-24 08:42:00,
2013-02-24 00:54:00,26.0,6.0,-100.00,SW,227,7.0,17.0,41,0.00,,,-99.99,0.000000,,2013-02-24 08:54:00,
2013-02-24 01:01:00,26.0,6.0,-100.00,SW,227,7.0,17.0,41,0.00,,,-99.99,0.000000,,2013-02-24 09:01:00,
2013-02-24 01:11:00,26.0,6.0,-100.00,SW,227,7.0,17.0,41,0.00,,,-99.99,0.000000,,2013-02-24 09:11:00,
2013-02-24 01:21:00,26.0,6.0,-100.00,SW,227,7.0,17.0,41,0.00,,,-99.99,0.000000,,2013-02-24 09:21:00,
2013-02-24 01:42:00,27.0,4.0,-100.00,SSW,192,6.0,19.0,37,0.00,,,0.06,0.000000,,2013-02-24 09:42:00,
2013-02-24 01:52:00,27.0,4.0,-100.00,SSW,192,6.0,19.0,37,0.00,,,0.06,0.000000,,2013-02-24 09:52:00,
2013-02-24 02:01:00,27.0,4.0,-100.00,SSW,192,6.0,19.0,37,0.00,,,0.06,0.000000,,2013-02-24 10:01:00,
2013-02-24 02:11:00,27.0,4.0,-100.00,SSW,192,6.0,19.0,37,0.00,,,0.06,0.000000,,2013-02-24 10:11:00,
2013-02-24 02:21:00,27.0,4.0,-100.00,SSW,192,6.0,19.0,37,0.00,,,0.06,0.000000,,2013-02-24 10:21:00,
2013-02-24 02:42:00,26.0,3.0,-100.00,SW,216,6.0,12.0,37,0.00,,,0.06,0.000000,,2013-02-24 10:42:00,
2013-02-24 02:52:00,26.0,3.0,-100.00,SW,216,6.0,12.0,37,0.00,,,0.06,0.000000,,2013-02-24 10:52:00,
2013-02-24 03:01:00,26.0,3.0,-100.00,SW,216,6.0,12.0,37,0.00,,,0.06,0.000000,,2013-02-24 11:01:00,
2013-02-24 03:11:00,26.0,3.0,-100.00,SW,216,6.0,12.0,37,0.00,,,0.06,0.000000,,2013-02-24 11:11:00,
2013-02-24 03:21:00,26.0,3.0,-100.00,SW,216,6.0,12.0,37,0.00,,,0.06,0.000000,,2013-02-24 11:21:00,
2013-02-24 03:42:00,27.0,2.0,-100.00,NNW,345,6.0,16.0,34,0.00,,,0.06,0.000000,,2013-02-24 11:42:00,
2013-02-24 03:52:00,27.0,2.0,-100.00,NNW,345,6.0,16.0,34,0.00,,,0.06,0.000000,,2013-02-24 11:52:00,
2013-02-24 04:01:00,27.0,2.0,-100.00,NNW,345,6.0,16.0,34,0.00,,,0.06,0.000000,,2013-02-24 12:01:00,
2013-02-24 04:11:00,27.0,2.0,-100.00,NNW,345,6.0,16.0,34,0.00,,,0.06,0.000000,,2013-02-24 12:11:00,
2013-02-24 04:21:00,27.0,2.0,-100.00,NNW,345,6.0,16.0,34,0.00,,,0.06,0.000000,,2013-02-24 12:21:00,
2013-02-24 04:46:00,27.0,0.0,-100.00,ESE,104,5.0,16.0,30,0.00,,,0.06,0.000000,,2013-02-24 12:46:00,
2013-02-24 04:56:00,27.0,0.0,-100.00,ESE,104,5.0,16.0,30,0.00,,,0.06,0.000000,,2013-02-24 12:56:00,
2013-02-24 05:07:00,27.0,0.0,-100.00,ESE,104,5.0,16.0,30,0.00,,,0.06,0.000000,,2013-02-24 13:07:00,
2013-02-24 05:15:00,27.0,0.0,-100.00,ESE,104,5.0,16.0,30,0.00,,,0.06,0.000000,,2013-02-24 13:15:00,
2013-02-24 05:45:00,27.0,0.0,-100.00,East,86,6.0,13.0,31,0.00,,,0.06,0.000000,,2013-02-24 13:45:00,
2013-02-24 05:54:00,27.0,0.0,-100.00,East,86,6.0,13.0,31,0.00,,,0.06,0.000000,,2013-02-24 13:54:00,
2013-02-24 06:03:00,27.0,0.0,-100.00,East,86,6.0,13.0,31,0.00,,,0.06,0.000000,,2013-02-24 14:03:00,
2013-02-24 06:12:00,27.0,0.0,-100.00,East,86,6.0,13.0,31,0.00,,,0.06,0.000000,,2013-02-24 14:12:00,
2013-02-24 06:22:00,27.0,0.0,-100.00,East,86,6.0,13.0,31,0.00,,,0.06,0.000000,,2013-02-24 14:22:00,
2013-02-24 06:45:00,27.0,0.0,-100.00,West,266,6.0,19.0,31,0.00,,,-99.99,0.000000,,2013-02-24 14:45:00,
2013-02-24 06:54:00,27.0,0.0,-100.00,West,266,6.0,19.0,31,0.00,,,-99.99,0.000000,,2013-02-24 14:54:00,
2013-02-24 07:02:00,27.0,0.0,-100.00,West,266,6.0,19.0,31,0.00,,,-99.99,0.000000,,2013-02-24 15:02:00,
2013-02-24 07:12:00,27.0,0.0,-100.00,West,266,6.0,19.0,31,0.00,,,-99.99,0.000000,,2013-02-24 15:12:00,
2013-02-24 07:22:00,27.0,0.0,-100.00,West,266,6.0,19.0,31,0.00,,,-99.99,0.000000,,2013-02-24 15:22:00,
2013-02-24 07:42:00,32.0,-2.0,-100.00,WNW,292,4.0,14.0,23,0.00,,,0.06,33.000000,,2013-02-24 15:42:00,
2013-02-24 07:52:00,32.0,-2.0,-100.00,WNW,292,4.0,14.0,23,0.00,,,0.06,33.000000,,2013-02-24 15:52:00,
2013-02-24 08:01:00,32.0,-2.0,-100.00,WNW,292,4.0,14.0,23,0.00,,,0.06,33.000000,,2013-02-24 16:01:00,
2013-02-24 08:42:00,40.0,-5.0,-100.00,NNE,29,2.0,6.0,14,-99.99,,,0.06,260.000000,,2013-02-24 16:42:00,
2013-02-24 08:52:00,40.0,-5.0,-100.00,NNE,29,2.0,6.0,14,-99.99,,,0.06,260.000000,,2013-02-24 16:52:00,
2013-02-24 09:01:00,40.0,-5.0,-100.00,NNE,29,2.0,6.0,14,-99.99,,,0.06,260.000000,,2013-02-24 17:01:00,
2013-02-24 09:42:00,45.0,0.0,-100.00,WSW,257,3.0,6.0,15,-99.99,,,0.06,538.000000,,2013-02-24 17:42:00,
2013-02-24 09:52:00,45.0,0.0,-100.00,WSW,257,3.0,6.0,15,-99.99,,,0.06,538.000000,,2013-02-24 17:52:00,
2013-02-24 10:01:00,45.0,0.0,-100.00,WSW,257,3.0,6.0,15,-99.99,,,0.06,538.000000,,2013-02-24 18:01:00,
2013-02-24 10:42:00,47.0,4.0,-100.00,South,187,4.0,17.0,17,-99.99,,,0.06,740.000000,,2013-02-24 18:42:00,
2013-02-24 10:52:00,47.0,4.0,-100.00,South,187,4.0,17.0,17,-99.99,,,0.06,740.000000,,2013-02-24 18:52:00,
2013-02-24 11:01:00,47.0,4.0,-100.00,South,187,4.0,17.0,17,-99.99,,,0.06,740.000000,,2013-02-24 19:01:00,
2013-02-24 11:42:00,49.0,0.0,-100.00,SE,130,5.0,12.0,13,-99.99,,,0.06,920.000000,,2013-02-24 19:42:00,
2013-02-24 11:52:00,49.0,0.0,-100.00,SE,130,5.0,12.0,13,-99.99,,,0.06,920.000000,,2013-02-24 19:52:00,
2013-02-24 12:02:00,49.0,0.0,-100.00,SE,130,5.0,12.0,13,-99.99,,,0.06,920.000000,,2013-02-24 20:02:00,
2013-02-24 12:42:00,52.0,6.0,-100.00,SSE,155,7.0,14.0,15,0.00,,,0.03,984.000000,,2013-02-24 20:42:00,
2013-02-24 12:52:00,52.0,6.0,-100.00,SSE,155,7.0,14.0,15,0.00,,,0.03,984.000000,,2013-02-24 20:52:00,
2013-02-24 13:01:00,52.0,6.0,-100.00,SSE,155,7.0,14.0,15,0.00,,,0.03,984.000000,,2013-02-24 21:01:00,
2013-02-24 13:42:00,53.0,4.0,-100.00,ESE,119,5.0,13.0,13,0.00,,,0.01,953.000000,,2013-02-24 21:42:00,
2013-02-24 13:52:00,53.0,4.0,-100.00,ESE,119,5.0,13.0,13,0.00,,,0.01,953.000000,,2013-02-24 21:52:00,
2013-02-24 14:01:00,53.0,4.0,-100.00,ESE,119,5.0,13.0,13,0.00,,,0.01,953.000000,,2013-02-24 22:01:00,
2013-02-24 14:11:00,53.0,4.0,-100.00,ESE,119,5.0,13.0,13,0.00,,,0.01,953.000000,,2013-02-24 22:11:00,
2013-02-24 14:21:00,53.0,4.0,-100.00,ESE,119,5.0,13.0,13,0.00,,,0.01,953.000000,,2013-02-24 22:21:00,
2013-02-24 14:42:00,55.0,17.0,-100.00,SSE,163,4.0,13.0,22,0.00,,,0.00,725.000000,,2013-02-24 22:42:00,
2013-02-24 14:52:00,55.0,17.0,-100.00,SSE,163,4.0,13.0,22,0.00,,,0.00,725.000000,,2013-02-24 22:52:00,
2013-02-24 15:02:00,55.0,17.0,-100.00,SSE,163,4.0,13.0,22,0.00,,,0.00,725.000000,,2013-02-24 23:02:00,
2013-02-24 15:11:00,55.0,17.0,-100.00,SSE,163,4.0,13.0,22,0.00,,,0.00,725.000000,,2013-02-24 23:11:00,
2013-02-24 15:21:00,55.0,17.0,-100.00,SSE,163,4.0,13.0,22,0.00,,,0.00,725.000000,,2013-02-24 23:21:00,
2013-02-24 15:42:00,54.0,17.0,-100.00,SW,232,4.0,11.0,23,-99.99,,,0.00,723.000000,,2013-02-24 23:42:00,
2013-02-24 15:52:00,54.0,17.0,-100.00,SW,232,4.0,11.0,23,-99.99,,,0.00,723.000000,,2013-02-24 23:52:00,
2013-02-24 16:01:00,54.0,17.0,-100.00,SW,232,4.0,11.0,23,-99.99,,,0.00,723.000000,,2013-02-25 00:01:00,
2013-02-24 16:11:00,54.0,17.0,-100.00,SW,232,4.0,11.0,23,-99.99,,,0.00,723.000000,,2013-02-25 00:11:00,
2013-02-24 16:21:00,54.0,17.0,-100.00,SW,232,4.0,11.0,23,-99.99,,,0.00,723.000000,,2013-02-25 00:21:00,
2013-02-24 16:42:00,52.0,14.0,-100.00,ESE,116,3.0,16.0,22,0.00,,,0.00,408.000000,,2013-02-25 00:42:00,
2013-02-24 16:52:00,52.0,14.0,-100.00,ESE,116,3.0,16.0,22,0.00,,,0.00,408.000000,,2013-02-25 00:52:00,
2013-02-24 17:01:00,52.0,14.0,-100.00,ESE,116,3.0,16.0,22,0.00,,,0.00,408.000000,,2013-02-25 01:01:00,
2013-02-24 17:11:00,52.0,14.0,-100.00,ESE,116,3.0,16.0,22,0.00,,,0.00,408.000000,,2013-02-25 01:11:00,
2013-02-24 17:21:00,52.0,14.0,-100.00,ESE,116,3.0,16.0,22,0.00,,,0.00,408.000000,,2013-02-25 01:21:00,
2013-02-24 17:42:00,44.0,23.0,-100.00,NNE,33,3.0,7.0,44,0.00,,,0.00,196.000000,,2013-02-25 01:42:00,
2013-02-24 17:52:00,44.0,23.0,-100.00,NNE,33,3.0,7.0,44,0.00,,,0.00,196.000000,,2013-02-25 01:52:00,
2013-02-24 18:01:00,44.0,23.0,-100.00,NNE,33,3.0,7.0,44,0.00,,,0.00,196.000000,,2013-02-25 02:01:00,
2013-02-24 18:11:00,44.0,23.0,-100.00,NNE,33,3.0,7.0,44,0.00,,,0.00,196.000000,,2013-02-25 02:11:00,
2013-02-24 18:21:00,44.0,23.0,-100.00,NNE,33,3.0,7.0,44,0.00,,,0.00,196.000000,,2013-02-25 02:21:00,
2013-02-24 18:42:00,37.0,24.0,-100.00,NNE,15,3.0,6.0,59,0.00,,,0.00,8.000000,,2013-02-25 02:42:00,
2013-02-24 18:52:00,37.0,24.0,-100.00,NNE,15,3.0,6.0,59,0.00,,,0.00,8.000000,,2013-02-25 02:52:00,
2013-02-24 19:01:00,37.0,24.0,-100.00,NNE,15,3.0,6.0,59,0.00,,,0.00,8.000000,,2013-02-25 03:01:00,
2013-02-24 19:11:00,37.0,24.0,-100.00,NNE,15,3.0,6.0,59,0.00,,,0.00,8.000000,,2013-02-25 03:11:00,
2013-02-24 19:21:00,37.0,24.0,-100.00,NNE,15,3.0,6.0,59,0.00,,,0.00,8.000000,,2013-02-25 03:21:00,
2013-02-24 19:42:00,35.0,21.0,-100.00,North,359,2.0,4.0,56,0.00,,,0.00,0.000000,,2013-02-25 03:42:00,
2013-02-24 19:52:00,35.0,21.0,-100.00,North,359,2.0,4.0,56,0.00,,,0.00,0.000000,,2013-02-25 03:52:00,
2013-02-24 20:01:00,35.0,21.0,-100.00,North,359,2.0,4.0,56,0.00,,,0.00,0.000000,,2013-02-25 04:01:00,
2013-02-24 20:11:00,35.0,21.0,-100.00,North,359,2.0,4.0,56,0.00,,,0.00,0.000000,,2013-02-25 04:11:00,
2013-02-24 20:21:00,35.0,21.0,-100.00,North,359,2.0,4.0,56,0.00,,,0.00,0.000000,,2013-02-25 04:21:00,
2013-02-24 20:42:00,35.0,15.0,-100.00,WSW,256,3.0,6.0,44,0.00,,,0.00,0.000000,,2013-02-25 04:42:00,
2013-02-24 20:52:00,35.0,15.0,-100.00,WSW,256,3.0,6.0,44,0.00,,,0.00,0.000000,,2013-02-25 04:52:00,
2013-02-24 21:01:00,35.0,15.0,-100.00,WSW,256,3.0,6.0,44,0.00,,,0.00,0.000000,,2013-02-25 05:01:00,
2013-02-24 21:11:00,35.0,15.0,-100.00,WSW,256,3.0,6.0,44,0.00,,,0.00,0.000000,,2013-02-25 05:11:00,
2013-02-24 21:21:00,35.0,15.0,-100.00,WSW,256,3.0,6.0,44,0.00,,,0.00,0.000000,,2013-02-25 05:21:00,
2013-02-24 21:42:00,38.0,9.0,-100.00,West,278,5.0,8.0,30,0.00,,,0.00,0.000000,,2013-02-25 05:42:00,
2013-02-24 21:52:00,38.0,9.0,-100.00,West,278,5.0,8.0,30,0.00,,,0.00,0.000000,,2013-02-25 05:52:00,
2013-02-24 22:02:00,38.0,9.0,-100.00,West,278,5.0,8.0,30,0.00,,,0.00,0.000000,,2013-02-25 06:02:00,
2013-02-24 22:42:00,37.0,11.0,-100.00,WNW,288,7.0,10.0,33,0.00,,,0.00,0.000000,,2013-02-25 06:42:00,
2013-02-24 22:52:00,37.0,11.0,-100.00,WNW,288,7.0,10.0,33,0.00,,,0.00,0.000000,,2013-02-25 06:52:00,
2013-02-24 23:01:00,37.0,11.0,-100.00,WNW,288,7.0,10.0,33,0.00,,,0.00,0.000000,,2013-02-25 07:01:00,
2013-02-24 23:42:00,36.0,10.0,-100.00,NW,307,3.0,10.0,34,0.00,,,0.00,0.000000,,2013-02-25 07:42:00,
2013-02-24 23:52:00,36.0,10.0,-100.00,NW,307,3.0,10.0,34,0.00,,,0.00,0.000000,,2013-02-25 07:52:00,